User: anonymous   Login
Location: Peebles
(55.6412°N, 3.1714°W)
Time: 08:52:02
(UTC+01:00)
Language:

Cosmos 2322 - Orbit

View from above orbital plane
View from above orbital plane
View from above satellite
View from above satellite

Ground track
Ground track

The orbit data is extracted from the following two-line orbital elements,

1 23704U 95058A   22176.93207132 -.00000161  00000-0 -60211-4 0  9992
2 23704  70.9812 158.0042 0010779 207.1550 152.9009 14.13454612374886
Epoch (UTC): 25 June 2022 22:22:10
Eccentricity: 0.0010779
inclination: 70.9812°
perigee height: 840 km
apogee height: 855 km
right ascension of ascending node: 158.0042°
argument of perigee: 207.1550°
revolutions per day: 14.13454612
mean anomaly at epoch: 152.9009°
orbit number at epoch: 37488

The dashed part of the orbit path shows where the satellite is in the earth's shadow,  

DLR